Location: LDNL
(36.4545°S, 141.6685°E)
Time: 10:02:31
(UTC+11:00)

Courier 1B - Pass Details

Date: 10 February 2023
Orbit: 962 x 1209 km, 28.3° (Epoch: 21 March)

Event Time Altitude Azimuth Distance (km) Brightness Sun altitude
Rises 22:42:46 0° 308° (NW) 3,718 10.7 -23.1°
Reaches altitude 10° 22:45:41 10° 318° (NW) 2,803 9.9 -23.5°
Enters shadow 22:49:48 28° 352° (N) 1,868 8.7 -24.2°
